FLOCK 3P-45 (42005 NORAD) Tracking and Keplerian Element Data

This shows tracking and keplerian element data for the satellite.

Feedback or suggestion? Click here.




ElementValue
Catalog42005
NameFLOCK 3P-45
Epoch Orbit17731
Epoch Day114.7230055
Epoch Year2020
RAAN184.3172
Inclination97.369
Eccentricity0.0008666
Argument of Perigee135.9196
Mean Anonmoly224.2736
Mean Motion15.27877348
Decay Rate2.859E-05
L11 42005U 17008BK 20114.72300550 .00002859 00000-0 10769-3 0 9997
L22 42005 97.3690 184.3172 0008666 135.9196 224.2736 15.27877348177310



Live tracking and technical data element details for FLOCK 3P-45 (NORAD 42005). FLOCK 3P-45 can be tracked NOW for your location showing map with azimuth and elevation plus other details from your city location.







IsCatalogInMostPopularTable: catalog: 42005, numindb: 453
Update: records affected: 1



GetName: 42005 FLOCK 3P-45

Hit Count: updated at: Thu, 15 May 2025 09:28:17 GMT